Weather in Buenos Aires

Argentina     34°36′56″S   58°26′06″W
temp.,
°C
wind,
m/s
gust,
m/s
humid.,
%
clouds,
%
prec.,
mm/h
press.,
hPa
HPBL,
m
15 june, tue
tue1500:00+11s59646 0.0 1026612
03:00+10s596210 0.0 1027519
06:00+8s48640 0.0 1027435
09:00+8s48680 0.0 1029396
12:00+11ssw46574 0.0 1030895
15:00+12s45482 0.0 10281462
18:00+11s56525 0.0 10281275
21:00+10s4858100 0.0 1029675
16 june, wed
wed1600:00+9s48575 0.0 1030497
03:00+8s48625 0.0 1030438
06:00+7sse4867100 0.0 1030401
09:00+7sse4866100 0.0 1031405
12:00+9sse3457100 0.0 1032586
15:00+10se2352100 0.0 10301033
18:00+10ssw2352100 0.0 1030903
21:00+10s3558100 0.0 1031604
17 june, thu
thu1700:00+9sse3661100 0.0 1031485
03:00+8s3465100 0.0 1031301
06:00+8s356841 0.0 1030319
09:00+8sse36625 0.0 1031296
12:00+10sse33477 0.0 1032787
15:00+11se22409 0.0 10291389
18:00+11sse344270 0.0 1029855
21:00+9sse3552100 0.0 1030434
18 june, fri
fri1800:00+8sse3460100 0.0 1030291
03:00+8sse246457 0.0 1030304
06:00+8sse236520 0.0 1029242
09:00+7sse336728 0.1 1030262
12:00+10se225936 0.0 1031718
15:00+11e22542 0.0 1029938
18:00+10e23510 0.0 1028352
21:00+10e35614 0.0 1028567
19 june, sat
sat1900:00+10ene24644 0.0 1027448
03:00+9n127225 0.0 1028272
06:00+9s237295 0.0 1027202
09:00+8s23715 0.0 1027210
12:00+11ese336811 0.0 1027804
15:00+12e337054 0.0 1025810
18:00+11ese227414 0.0 1025226
21:00+11ese23774 0.0 1025187